Hourly Weather Namibe

Today, 29 September, Tuesday

Time Temperature Precipitation Wind Pressure Humidity
00:00 +21°C° 0 mm 1 mps 759 mmHg 86%
01:00 +21°C° 0 mm 1 mps 759 mmHg 88%
02:00 +20°C° 0 mm 1 mps 759 mmHg 90%
03:00 +19°C° 0 mm 2 mps 758 mmHg 93%
04:00 +18°C° 0 mm 2 mps 758 mmHg 95%
05:00 +18°C° 0 mm 2 mps 758 mmHg 94%
06:00 +19°C° 0 mm 2 mps 759 mmHg 93%
07:00 +19°C° 0 mm 2 mps 759 mmHg 93%
08:00 +21°C° 0 mm 2 mps 759 mmHg 84%
09:00 +24°C° 0 mm 2 mps 759 mmHg 74%
10:00 +26°C° 0 mm 3 mps 759 mmHg 65%
11:00 +26°C° 0 mm 3 mps 758 mmHg 62%
12:00 +27°C° 0 mm 4 mps 757 mmHg 59%
13:00 +27°C° 0 mm 5 mps 757 mmHg 56%
14:00 +26°C° 0 mm 4 mps 756 mmHg 60%
15:00 +25°C° 0 mm 4 mps 756 mmHg 63%
16:00 +23°C° 0 mm 4 mps 755 mmHg 66%
17:00 +22°C° 0 mm 4 mps 756 mmHg 74%
18:00 +20°C° 0 mm 3 mps 757 mmHg 81%
19:00 +19°C° 0 mm 3 mps 758 mmHg 88%
20:00 +19°C° 0 mm 2 mps 758 mmHg 88%
21:00 +19°C° 0 mm 2 mps 759 mmHg 88%
22:00 +19°C° 0 mm 2 mps 759 mmHg 87%
23:00 +19°C° 0 mm 2 mps 759 mmHg 87%

Tomorrow, 30 September, Wednesday

Time Temperature Precipitation Wind Pressure Humidity
00:00 +19°C° 0 mm 3 mps 759 mmHg 86%
01:00 +19°C° 0 mm 3 mps 758 mmHg 85%
02:00 +19°C° 0 mm 3 mps 758 mmHg 85%
03:00 +19°C° 0 mm 3 mps 758 mmHg 85%
04:00 +19°C° 0 mm 3 mps 757 mmHg 86%
05:00 +19°C° 0 mm 2 mps 758 mmHg 85%
06:00 +19°C° 0 mm 2 mps 758 mmHg 83%
07:00 +19°C° 0 mm 2 mps 759 mmHg 82%
08:00 +21°C° 0 mm 2 mps 759 mmHg 75%
09:00 +24°C° 0 mm 3 mps 758 mmHg 68%
10:00 +25°C° 0 mm 3 mps 758 mmHg 61%
11:00 +26°C° 0 mm 4 mps 758 mmHg 59%
12:00 +26°C° 0 mm 4 mps 757 mmHg 57%
13:00 +27°C° 0 mm 5 mps 756 mmHg 55%
14:00 +26°C° 0 mm 5 mps 756 mmHg 60%
15:00 +23°C° 0 mm 5 mps 756 mmHg 64%
16:00 +22°C° 0 mm 5 mps 756 mmHg 69%
17:00 +21°C° 0 mm 4 mps 756 mmHg 74%
18:00 +20°C° 0 mm 2 mps 757 mmHg 78%
19:00 +20°C° 0 mm 1 mps 758 mmHg 83%
20:00 +19°C° 0 mm 2 mps 758 mmHg 84%
21:00 +19°C° 0 mm 2 mps 759 mmHg 85%
22:00 +19°C° 0 mm 3 mps 759 mmHg 86%
23:00 +19°C° 0 mm 2 mps 759 mmHg 89%

Day after tomorrow, 1 October, Thursday

Time Temperature Precipitation Wind Pressure Humidity
00:00 +18°C° 0 mm 2 mps 759 mmHg 91%
01:00 +18°C° 0 mm 2 mps 758 mmHg 94%
02:00 +18°C° 0 mm 2 mps 758 mmHg 92%
03:00 +19°C° 0 mm 2 mps 758 mmHg 90%
04:00 +19°C° 0 mm 2 mps 757 mmHg 89%
05:00 +19°C° 0 mm 2 mps 758 mmHg 87%
06:00 +19°C° 0 mm 2 mps 758 mmHg 86%
07:00 +19°C° 0 mm 2 mps 759 mmHg 84%
08:00 +21°C° 0 mm 2 mps 759 mmHg 76%
09:00 +24°C° 0 mm 2 mps 758 mmHg 67%
10:00 +26°C° 0 mm 2 mps 758 mmHg 59%
11:00 +26°C° 0 mm 3 mps 758 mmHg 58%
12:00 +27°C° 0 mm 4 mps 757 mmHg 57%
13:00 +27°C° 0 mm 5 mps 756 mmHg 56%
14:00 +26°C° 0 mm 5 mps 756 mmHg 60%
15:00 +25°C° 0 mm 5 mps 755 mmHg 63%
16:00 +23°C° 0 mm 5 mps 755 mmHg 67%
17:00 +22°C° 0 mm 4 mps 756 mmHg 73%
18:00 +20°C° 0 mm 4 mps 757 mmHg 80%
19:00 +19°C° 0 mm 3 mps 757 mmHg 86%
20:00 +19°C° 0 mm 2 mps 758 mmHg 86%
21:00 +18°C° 0 mm 2 mps 758 mmHg 87%
22:00 +19°C° 0 mm 1 mps 759 mmHg 87%
23:00 +19°C° 0 mm 1 mps 758 mmHg 87%

2 October, Friday

Time Temperature Precipitation Wind Pressure Humidity
00:00 +19°C° 0 mm 1 mps 758 mmHg 87%
01:00 +19°C° 0 mm 1 mps 758 mmHg 87%
02:00 +19°C° 0 mm 1 mps 758 mmHg 88%
03:00 +18°C° 0 mm 1 mps 758 mmHg 90%
04:00 +18°C° 0 mm 1 mps 757 mmHg 91%
05:00 +19°C° 0 mm 1 mps 758 mmHg 89%
06:00 +19°C° 0 mm 1 mps 758 mmHg 87%
07:00 +18°C° 0 mm 0 mps 759 mmHg 84%
08:00 +22°C° 0 mm 1 mps 759 mmHg 74%
09:00 +25°C° 0 mm 2 mps 758 mmHg 64%
10:00 +27°C° 0 mm 3 mps 758 mmHg 54%
11:00 +27°C° 0 mm 4 mps 758 mmHg 54%
12:00 +27°C° 0 mm 4 mps 757 mmHg 54%
13:00 +27°C° 0 mm 5 mps 757 mmHg 54%
14:00 +26°C° 0 mm 5 mps 757 mmHg 57%
15:00 +26°C° 0 mm 4 mps 756 mmHg 60%
16:00 +25°C° 0 mm 4 mps 756 mmHg 63%
17:00 +22°C° 0 mm 3 mps 757 mmHg 70%
18:00 +21°C° 0 mm 3 mps 757 mmHg 77%
19:00 +19°C° 0 mm 2 mps 758 mmHg 84%
20:00 +19°C° 0 mm 2 mps 759 mmHg 86%
21:00 +20°C° 0 mm 1 mps 759 mmHg 88%
22:00 +19°C° 0 mm 1 mps 760 mmHg 90%
23:00 +19°C° 0 mm 1 mps 759 mmHg 92%

3 October, Saturday

Time Temperature Precipitation Wind Pressure Humidity
00:00 +18°C° 0 mm 1 mps 759 mmHg 93%
01:00 +18°C° 0 mm 1 mps 759 mmHg 94%
02:00 +18°C° 0 mm 1 mps 758 mmHg 95%
03:00 +16°C° 0 mm 1 mps 758 mmHg 95%
04:00 +16°C° 0 mm 1 mps 758 mmHg 95%
05:00 +18°C° 0 mm 1 mps 758 mmHg 92%
06:00 +19°C° 0 mm 1 mps 759 mmHg 88%
07:00 +20°C° 0 mm 1 mps 759 mmHg 85%
08:00 +21°C° 0 mm 2 mps 759 mmHg 74%
09:00 +25°C° 0 mm 2 mps 759 mmHg 63%
10:00 +27°C° 0 mm 3 mps 759 mmHg 53%
11:00 +27°C° 0 mm 4 mps 758 mmHg 50%
12:00 +28°C° 0 mm 4 mps 757 mmHg 48%
13:00 +29°C° 0 mm 5 mps 757 mmHg 45%
14:00 +28°C° 0 mm 5 mps 756 mmHg 47%
15:00 +27°C° 0 mm 5 mps 756 mmHg 49%
16:00 +26°C° 0 mm 5 mps 756 mmHg 52%
17:00 +23°C° 0 mm 4 mps 756 mmHg 61%
18:00 +21°C° 0 mm 4 mps 757 mmHg 71%
19:00 +19°C° 0 mm 4 mps 758 mmHg 81%
20:00 +18°C° 0 mm 3 mps 758 mmHg 81%
21:00 +18°C° 0 mm 3 mps 758 mmHg 81%
22:00 +18°C° 0 mm 2 mps 758 mmHg 81%
23:00 +17°C° 0 mm 2 mps 758 mmHg 82%

4 October, Sunday

Time Temperature Precipitation Wind Pressure Humidity
00:00 +17°C° 0 mm 2 mps 758 mmHg 84%
01:00 +16°C° 0 mm 2 mps 757 mmHg 85%
02:00 +16°C° 0 mm 2 mps 757 mmHg 86%
03:00 +15°C° 0 mm 2 mps 757 mmHg 87%
04:00 +15°C° 0 mm 2 mps 757 mmHg 88%
05:00 +16°C° 0 mm 2 mps 757 mmHg 83%
06:00 +17°C° 0 mm 3 mps 758 mmHg 79%
07:00 +19°C° 0 mm 3 mps 758 mmHg 75%
08:00 +21°C° 0 mm 4 mps 758 mmHg 66%
09:00 +23°C° 0 mm 4 mps 758 mmHg 56%
10:00 +27°C° 0 mm 4 mps 758 mmHg 47%
11:00 +27°C° 0 mm 5 mps 757 mmHg 46%
12:00 +27°C° 0 mm 5 mps 756 mmHg 46%
13:00 +28°C° 0 mm 6 mps 756 mmHg 46%
14:00 +26°C° 0 mm 6 mps 756 mmHg 50%
15:00 +24°C° 0 mm 6 mps 755 mmHg 55%
16:00 +23°C° 0 mm 6 mps 755 mmHg 59%
17:00 +22°C° 0 mm 5 mps 756 mmHg 66%
18:00 +21°C° 0 mm 4 mps 757 mmHg 73%
19:00 +19°C° 0 mm 3 mps 758 mmHg 80%
20:00 +19°C° 0 mm 3 mps 758 mmHg 83%
21:00 +19°C° 0 mm 3 mps 759 mmHg 85%
22:00 +18°C° 0 mm 3 mps 759 mmHg 88%
23:00 +18°C° 0 mm 3 mps 759 mmHg 88%
Show more